Flag for U.S.A. Weather past 2 weeks in Tacoma, Washington, U.S.A.

Now
49 °F

Broken clouds.


Feels Like: 45 °F
Forecast: 41 / 59 °F
Wind: 8 mph from South

Location: Tacoma Narrows Airport

Current Time: Apr 25, 2015 at 6:18:11 PM

Latest Report: Apr 25, 2015 at 5:53 PM


Visibility: 10 mi

Pressure: 30.04 "Hg

Humidity: 71%

Dew point: 40 °F

Location of TacomaLocation

Historic Weather in Tacoma — Graph

°F

Tacoma temperature yesterday

Maximum temperature yesterday: 52 °F (at 5:53 PM)
Minimum temperature yesterday: 43 °F (at 2:53 AM)
Average temperature yesterday: 47 °F

Past Weeks' High & Low Weather Summary

 TemperatureHumidityPressure
High71 °F (Apr 20, 4:53 PM)93% (Apr 13, 4:53 AM)30.57 "Hg (Apr 13, 4:53 AM)
Low38 °F (Apr 14, 6:53 AM)32% (Apr 18, 2:53 PM)29.78 "Hg (Apr 24, 3:53 AM)
Average50 °F68%30.10 "Hg
* Reported Apr 10 4:53 PM — Apr 25 4:53 PM, Tacoma, Weather by CustomWeather, © 2015

Note: Actual official high and low records may vary slightly from our data, if they occured in-between our weather recording intervals... More about our weather records

Advertising

Tacoma weather history for previous 24 hours

 ConditionsComfort  
Time TempWeatherWind HumidityBarometerVisibility
4:53 PM
Sat, Apr 25
48 °FLight rain. Overcast.6 mph77%30.04 "Hg10 mi
3:53 PM51 °FCloudy.15 mph61%30.02 "Hg10 mi
2:53 PM56 °FPartly sunny.6 mph49%30.01 "Hg10 mi
1:53 PM54 °FPartly sunny.7 mph51%29.99 "Hg10 mi
12:53 PM51 °FPartly sunny.7 mph52%30.00 "Hg10 mi
11:53 AM50 °FPartly sunny.5 mph61%30.00 "Hg10 mi
10:53 AM49 °FPartly sunny.5 mph69%29.99 "Hg10 mi
9:53 AM46 °FPartly sunny.7 mph73%30.00 "Hg10 mi
8:53 AM45 °FPartly sunny.9 mph82%29.98 "Hg10 mi
7:53 AM44 °FMostly cloudy.7 mph82%29.97 "Hg10 mi
6:53 AM44 °FOvercast.3 mph85%29.95 "Hg10 mi
5:53 AM44 °FMostly cloudy.No wind82%29.93 "Hg10 mi
4:53 AM45 °FOvercast.3 mph80%29.92 "Hg10 mi
3:53 AM45 °FMostly cloudy.5 mph82%29.91 "Hg10 mi
2:53 AM45 °FMostly cloudy.6 mph86%29.90 "Hg10 mi
1:53 AM45 °FPassing clouds.7 mph82%29.90 "Hg10 mi
12:53 AM46 °FMostly cloudy.7 mph83%29.89 "Hg10 mi
11:53 PM
Fri, Apr 24
46 °FOvercast.7 mph79%29.89 "Hg10 mi
10:53 PM47 °FOvercast.8 mph77%29.88 "Hg10 mi
9:53 PM47 °FPartly cloudy.9 mph77%29.88 "Hg10 mi
8:53 PM48 °FScattered clouds.8 mph74%29.87 "Hg10 mi
7:53 PM51 °FPassing clouds.7 mph56%29.85 "Hg10 mi
6:53 PM52 °FPartly sunny.7 mph59%29.84 "Hg10 mi
Weather by CustomWeather, © 2015

See weather overviewHow to use our weather pages